Regional Weather Roundup
Issued by NWS

Home | Current Version | Previous Version | Graphics & Text | Print | Product List | Glossary On
Versions: 1 2 3 4 5 6 7 8 9 10 11 12 13 14 15 16 17 18 19 20 21 22 23 24 25 26 27 28 29 30 31 32 33 34 35 36 37 38 39 40 41 42 43 44 45 46 47 48 49 50
000
ASUS43 KTOP 270459
RWRKS

WEATHER ROUNDUP FOR KANSAS
NATIONAL WEATHER SERVICE GOODLAND KS
1100 PM CST WED NOV 26 2014

NOTE:  "FAIR" INDICATES FEW OR NO CLOUDS BELOW 12,000 FEET WITH NO
SIGNIFICANT WEATHER AND/OR OBSTRUCTIONS TO VISIBILITY.

KSZ001>006-013>018-027>032-041>047-270600-
NORTHWEST KANSAS

CITY           SKY/WX    TMP DP  RH WIND       PRES   REMARKS
GOODLAND       CLOUDY    27  24  89 S9        30.34F
HAYS           CLOUDY    34  16  47 E7        30.41S
HILL CITY      CLOUDY    33  19  56 S3        30.41R
RUSSELL        CLOUDY    30  20  66 NE7       30.42R
$$

KSZ061>065-074>080-084>089-270600-
SOUTHWEST KANSAS

CITY           SKY/WX    TMP DP  RH WIND       PRES   REMARKS
DODGE CITY     CLEAR     24  15  68 N3        30.41R
ELKHART          N/A     26  15  63 SE7         N/A
GARDEN CITY    PTCLDY    25  16  68 E7        30.39R
GREAT BEND     CLOUDY    32  18  55 NE5       30.44R
LIBERAL        CLEAR     27  12  54 CALM      30.41S
$$

KSZ066>073-081>083-090>101-270600-
SOUTHEAST KANSAS

CITY           SKY/WX    TMP DP  RH WIND       PRES   REMARKS
CHANUTE        CLEAR     28  22  78 N10       30.41R WCI  19
COFFEYVILLE    CLEAR     33  23  66 N16       30.41R WCI  23
HUTCHINSON     MOCLDY    32  20  61 N10       30.45R WCI  24
MEDICINE LODGE   N/A     30  21  69 N5        30.43R
NEWTON         PTCLDY    28  18  64 N13       30.44R WCI  18
PARSONS        CLEAR     30  23  75 N14       30.42R WCI  19
WICHITA INTL   PTCLDY    32  21  64 N12       30.44R WCI  23
WICHITA JABRA  PTCLDY    29  21  72 N12       30.43R WCI  19
WINFIELD       CLEAR     32  23  69 N13       30.43R WCI  22
$$

KSZ007>012-019>026-033>040-048>060-102>105-270600-
NORTHEAST KANSAS

CITY           SKY/WX    TMP DP  RH WIND       PRES   REMARKS
CONCORDIA      CLEAR     23  17  78 NW3       30.45R
EMPORIA        CLEAR     26  20  77 NW12      30.44R WCI  16
LAWRENCE       CLOUDY    29  21  72 NW14      30.42R WCI  18
MANHATTAN      CLEAR     23  18  81 W3        30.47R
OLATHE IND     CLOUDY    29  22  75 NW13G23   30.39R WCI  19
OLATHE EXE     CLOUDY    29  22  75 N14G24    30.38R WCI  18
SALINA         CLOUDY    27  19  72 N7        30.47R
TOPEKA BILLARD CLOUDY    29  20  69 N10       30.45R WCI  20
TOPEKA FORBES  CLOUDY    29  20  69 NW14      30.43R WCI  18
$$


USA.gov is the U.S. government's official web portal to all federal, state and local government web resources and services.